#timestamp,LO_Frequency,Hit,StdDev 
1629856815.7,286047001.1,N
1629856835.6,286047002.2,N
1629856855.4,286047004.3,N
1629856875.3,286047003.6,N
1629856895.1,286047000.1,N
1629856896.0,286047000.1,N
1629856915.8,286047002.5,N
1629856935.7,286047002.5,N
1629856955.5,286047000.1,N
1629856975.3,286047004.0,N
1629856995.2,286047005.4,N
1629857015.0,286047005.5,N
1629857015.9,286047005.5,N
1629857035.8,286047003.4,N
1629857055.6,286047005.3,N
1629857075.4,286047004.8,N
1629857095.3,286047006.5,N
1629857115.1,286047009.0,Y
1629857135.9,286047005.4,P
1629857155.7,286047005.9,P
1629857175.5,286047005.6,P
1629857195.4,286047004.7,N
1629857215.2,286047005.7,Y
1629857235.0,286047000.5,P
1629857235.9,286047000.5,N
1629857255.8,286047000.1,N
1629857275.6,286047005.6,N
1629857295.5,286047004.9,N
1629857315.3,286047005.6,N
1629857335.1,286047003.0,N
1629857355.9,286047005.3,N
1629857375.7,286047006.5,N
1629857395.6,286047011.9,Y
1629857415.4,286047010.4,P
1629857435.2,286047012.8,P
1629857455.1,286047015.9,P
1629857456.0,286047015.9,Y
1629857475.8,286047008.2,P
1629857495.7,286047011.8,P
1629857515.5,286047016.6,P
1629857535.3,286047021.4,Y
1629857555.2,286047013.0,P
1629857575.0,286047019.9,P
1629857575.9,286047019.9,P
1629857595.8,286047020.5,Y
1629857615.6,286047007.4,P
1629857635.5,286047005.7,N
1629857655.3,286047006.9,N
1629857675.1,286047004.4,N
1629857695.9,286046998.3,N
1629857715.7,286047001.5,N
1629857735.6,286047005.1,N
1629857755.4,286047003.4,N
1629857775.2,286047007.2,N
1629857795.1,286047008.1,N
1629857796.0,286047008.1,N
1629857815.8,286047009.6,N
1629857835.6,286047011.0,N
1629857855.5,286047011.5,N
1629857875.3,286047013.9,Y
1629857895.2,286047009.6,P
1629857915.9,286047009.8,P
1629857935.8,286047011.1,P
1629857955.6,286047011.9,Y
1629857975.4,286047000.6,P
1629857995.3,286047001.5,N
1629858015.1,286047003.4,N
1629858035.9,286047002.3,N
1629858055.7,286047000.7,N
1629858075.5,286047002.6,N
1629858095.4,286046998.1,N
1629858115.2,286046996.9,N
1629858135.0,286046997.4,N
1629858135.9,286046997.4,N
1629858155.8,286046996.5,N
1629858175.7,286046998.2,N
1629858195.5,286046997.5,N
1629858215.3,286046993.5,N
1629858235.2,286046994.7,N
1629858255.9,286046994.4,N
1629858275.7,286046992.3,N
1629858295.6,286046993.4,N
1629858315.4,286046994.6,N
1629858335.3,286046996.4,N
1629858355.1,286046993.9,N
1629858356.0,286046993.9,N
1629858375.8,286046989.2,N
1629858395.7,286046984.4,Y
1629858415.5,286046988.4,P
1629858435.4,286046987.8,N
1629858455.2,286046987.2,N
1629858475.0,286046987.8,N
1629858475.9,286046987.8,Y
1629858495.8,286046995.0,P
1629858515.6,286046997.8,N
1629858535.5,286046997.9,N
1629858555.3,286046995.2,N
1629858605.2,286046993.4,E
1629858615.1,286046996.8,N
1629858616.0,286046996.8,P
1629858635.8,286047000.9,P
1629858655.7,286046998.4,N
1629858675.5,286047000.4,N
1629858695.3,286046998.1,N
1629858715.2,286047000.8,N
1629858735.0,286046998.9,N
1629858735.9,286046998.9,N
1629858755.7,286046999.6,N
1629858775.6,286046993.9,Y
1629858795.4,286046994.8,P
1629858815.3,286046990.6,P
1629858835.1,286046991.6,N
1629858836.0,286046991.6,N
1629858855.8,286046989.6,Y
1629858875.7,286046990.9,P
1629858895.5,286046990.6,P
1629858915.4,286046989.0,P
1629858935.2,286046989.9,Y
1629858955.0,286046994.1,P
1629858955.9,286046994.1,P
1629858975.8,286046994.6,P
1629858995.6,286046992.9,Y
1629859015.5,286046996.6,P
1629859035.3,286046997.8,N
1629859055.1,286046995.5,N
1629859075.9,286046997.5,N
1629859095.7,286046996.7,N
1629859115.5,286046999.4,N
1629859135.4,286046993.5,Y
1629859155.2,286046997.1,P
1629859175.1,286046997.3,P
1629859176.0,286046997.3,P
1629859195.8,286046999.1,Y
1629859215.6,286046999.4,P
1629859235.5,286046999.5,N
1629859255.3,286046996.5,P
1629859275.2,286047002.2,N
1629859295.9,286047000.1,N
1629859315.7,286047001.4,N
1629859335.6,286047000.6,N
1629859355.4,286046999.0,N
1629859375.2,286046997.8,N
1629859395.1,286046995.3,N
1629859396.0,286046995.3,N
1629859415.8,286046997.0,N
1629859435.7,286046999.6,N
1629859455.5,286046997.8,N
1629859475.3,286047000.8,N
1629859495.2,286047000.5,N
1629859515.0,286046998.5,N
1629859515.9,286046998.5,N
1629859535.7,286046998.7,N
1629859555.6,286046999.2,N
1629859575.4,286046998.7,N
1629859595.3,286047000.7,N
1629859615.1,286046998.2,N
1629859635.8,286047001.0,N
1629859655.7,286047000.8,N
1629859675.5,286047000.9,N
1629859695.4,286046998.8,N
1629859715.2,286046998.7,N
1629859735.0,286046998.3,N
1629859735.9,286046998.3,N
1629859755.8,286047000.5,N
1629859775.6,286046998.5,N
1629859795.4,286046999.6,N
1629859815.3,286046999.1,N
1629859835.1,286046999.6,N
1629859855.9,286047001.1,N
1629859875.7,286047002.3,N
1629859895.5,286047005.9,Y
1629859915.4,286047005.8,P
1629859935.2,286047006.8,N
1629859955.1,286047007.0,N
1629859956.0,286047007.0,N
1629859975.8,286047004.9,N
1629859995.6,286047005.4,N
1629860015.5,286047005.4,N
1629860035.3,286047002.9,N
1629860055.1,286047002.5,N
1629860075.9,286047002.4,N
1629860095.7,286047001.4,N
1629860115.6,286047004.3,N
1629860135.4,286047002.9,N
1629860155.2,286047003.2,N
1629860175.1,286047001.7,N
1629860176.0,286047001.7,N
1629860195.8,286047003.3,N
1629860215.6,286047004.4,N
1629860235.5,286047000.5,N
1629860255.3,286047000.4,N
1629860275.2,286046999.9,N
1629860295.9,286046999.2,N
1629860315.7,286046995.0,N
1629860335.6,286046993.5,N
1629860355.4,286046994.2,N
1629860375.2,286046994.8,N
1629860395.1,286046990.3,N
1629860396.0,286046990.3,N
